map of UFA home
Great Circle Mapper logo
UFA - Airport
Location
City:  Ufa, Bashkortostan, Russian Federation (Russia)
ICAO / IATA:UWUU / UFA

Details
Type:Airport (Aerodrome, Airfield)
Use:Public/Civil
Latitude:5433'27"N (54.557511)
Longitude:5552'28"E (55.874417)
Datum:WGS 1984
Elevation:449 ft (137 m)
Variation:13.00E (WMM2015 magnetic declination)
0.09 annual change
Runways:5
Longest:12340 × 197 ft (3761 × 60 m), paved

Time
Time Zone:UTC+5 (DST+6)

Weather
METAR:UWUU 281930Z VRB01MPS CAVOK 19/14 Q1015 R14L/0///60 NOSIG RMK QFE750/1001
TAF:UWUU 281657Z 2818/2918 18004MPS 9999 BKN030CB
TEMPO 2818/2903 VRB02MPS 2100 BR SCT007 SCT030CB
TEMPO 2903/2918 VRB16MPS 3000 TSRAGR SQ BKN015CB

Related Locations
Nearby:
Farthest:AAXX: 10440 mi / 16802 km
Rothera Point, Adelaide Island, British Antarctic Territory, AQ

Find:

   beyond  
but within

Other Information
Maps:
NOTAMs:
Links:
Sources:

  
flag of Russian Federation (Russia)   

Sectional Chart

Flight Planning
at skyvector.com

Satellite Image

Google Maps Satellite View

 

Copyright © 2004-2015 Karl L. Swartz. All rights reserved.
The Great Circle Mapper name and logo are trademarks of the Great Circle Mapper.
All other trademarks mentioned herein belong to their respective owners.
Please see credits for attibutions and further copyright information.

  Follow gcmap on Facebook Follow gcmap on Twitter Follow gcmap on Google+

hCard Microformat

Geo Microformat